When you browse on this site, cookies collect data to enhance your experience and personalize the content and advertising you see.
Visit our Privacy Policy to learn more. By continuing to use the site, you agree to this use of cookies and data.
  • In Romania
  • List of Countries
  • For 7 days
  • Water Temperature
  • Satellite Maps
  • Weather Map
  • Weather Widgets
  • user-avatar
    Login

    Hourly Weather Arkadia

    Today, 23 March, Saturday

    Time Temperature Precipitation Wind Pressure Humidity
    00:00 +1°C° 0 mm 2 mps 666 mmHg 90%
    01:00 +1°C° 0 mm 2 mps 665 mmHg 90%
    02:00 +1°C° 0 mm 2 mps 665 mmHg 89%
    03:00 +1°C° 0 mm 2 mps 665 mmHg 89%
    04:00 +1°C° 0 mm 2 mps 665 mmHg 89%
    05:00 +2°C° 0 mm 2 mps 665 mmHg 85%
    06:00 +3°C° 0 mm 2 mps 665 mmHg 82%
    07:00 +4°C° 0 mm 2 mps 666 mmHg 79%
    08:00 +5°C° 0 mm 3 mps 666 mmHg 71%
    09:00 +8°C° 0 mm 3 mps 667 mmHg 62%
    10:00 +10°C° 0 mm 3 mps 667 mmHg 54%
    11:00 +10°C° 0 mm 3 mps 667 mmHg 52%
    12:00 +11°C° 0 mm 3 mps 667 mmHg 51%
    13:00 +12°C° 0 mm 3 mps 667 mmHg 49%
    14:00 +11°C° 0 mm 3 mps 667 mmHg 51%
    15:00 +11°C° 0 mm 3 mps 667 mmHg 53%
    16:00 +10°C° 0 mm 3 mps 666 mmHg 55%
    17:00 +8°C° 0 mm 2 mps 666 mmHg 63%
    18:00 +6°C° 0 mm 2 mps 665 mmHg 71%
    19:00 +4°C° 0 mm 2 mps 665 mmHg 79%
    20:00 +4°C° 0 mm 2 mps 665 mmHg 81%
    21:00 +4°C° 0 mm 2 mps 665 mmHg 83%
    22:00 +3°C° 0 mm 2 mps 665 mmHg 85%
    23:00 +3°C° 0 mm 2 mps 665 mmHg 86%

    Tomorrow, 24 March, Sunday

    Time Temperature Precipitation Wind Pressure Humidity
    00:00 +3°C° 0 mm 2 mps 665 mmHg 86%
    01:00 +3°C° 0 mm 2 mps 665 mmHg 86%
    02:00 +3°C° 0 mm 2 mps 665 mmHg 87%
    03:00 +3°C° 0 mm 2 mps 665 mmHg 87%
    04:00 +3°C° 0 mm 2 mps 665 mmHg 88%
    05:00 +3°C° 0 mm 2 mps 665 mmHg 87%
    06:00 +4°C° 0 mm 2 mps 666 mmHg 85%
    07:00 +5°C° 0 mm 2 mps 666 mmHg 84%
    08:00 +7°C° 0 mm 2 mps 667 mmHg 77%
    09:00 +8°C° 0 mm 2 mps 667 mmHg 69%
    10:00 +9°C° 0 mm 2 mps 668 mmHg 62%
    11:00 +10°C° 0 mm 2 mps 668 mmHg 58%
    12:00 +12°C° 0 mm 2 mps 668 mmHg 54%
    13:00 +12°C° 0 mm 3 mps 668 mmHg 50%
    14:00 +13°C° 0 mm 2 mps 668 mmHg 51%
    15:00 +12°C° 0 mm 2 mps 667 mmHg 51%
    16:00 +12°C° 0 mm 2 mps 667 mmHg 52%
    17:00 +9°C° 0 mm 2 mps 666 mmHg 60%
    18:00 +8°C° 0 mm 1 mps 666 mmHg 68%
    19:00 +5°C° 0 mm 1 mps 665 mmHg 77%
    20:00 +5°C° 0 mm 1 mps 665 mmHg 78%
    21:00 +4°C° 0 mm 1 mps 665 mmHg 79%
    22:00 +4°C° 0 mm 1 mps 665 mmHg 80%
    23:00 +4°C° 0 mm 1 mps 665 mmHg 79%

    Day after tomorrow, 25 March, Monday

    Time Temperature Precipitation Wind Pressure Humidity
    00:00 +4°C° 0 mm 1 mps 665 mmHg 79%
    01:00 +4°C° 0 mm 1 mps 664 mmHg 78%
    02:00 +4°C° 0 mm 1 mps 664 mmHg 77%
    03:00 +3°C° 0 mm 1 mps 664 mmHg 77%
    04:00 +3°C° 0 mm 1 mps 664 mmHg 77%
    05:00 +5°C° 0 mm 1 mps 664 mmHg 74%
    06:00 +6°C° 0 mm 1 mps 664 mmHg 71%
    07:00 +7°C° 0 mm 1 mps 665 mmHg 68%
    08:00 +10°C° 0 mm 1 mps 665 mmHg 60%
    09:00 +12°C° 0 mm 1 mps 666 mmHg 53%
    10:00 +14°C° 0 mm 1 mps 667 mmHg 45%
    11:00 +15°C° 0 mm 1 mps 666 mmHg 44%
    12:00 +15°C° 0 mm 1 mps 666 mmHg 43%
    13:00 +16°C° 0 mm 1 mps 666 mmHg 42%
    14:00 +15°C° 0 mm 1 mps 665 mmHg 46%
    15:00 +14°C° 0 mm 1 mps 665 mmHg 50%
    16:00 +13°C° 0 mm 1 mps 664 mmHg 55%
    17:00 +11°C° 0 mm 1 mps 663 mmHg 64%
    18:00 +9°C° 0 mm 1 mps 663 mmHg 74%
    19:00 +7°C° 0 mm 1 mps 662 mmHg 83%
    20:00 +7°C° 0 mm 1 mps 662 mmHg 86%
    21:00 +6°C° 0 mm 1 mps 662 mmHg 88%
    22:00 +6°C° 0 mm 1 mps 661 mmHg 90%
    23:00 +5°C° 0 mm 1 mps 661 mmHg 91%

    26 March, Tuesday

    Time Temperature Precipitation Wind Pressure Humidity
    00:00 +5°C° 0 mm 1 mps 661 mmHg 91%
    01:00 +5°C° 0 mm 1 mps 660 mmHg 92%
    02:00 +4°C° 0 mm 1 mps 660 mmHg 90%
    03:00 +4°C° 0 mm 1 mps 660 mmHg 88%
    04:00 +4°C° 0 mm 1 mps 660 mmHg 86%
    05:00 +5°C° 0 mm 1 mps 660 mmHg 80%
    06:00 +6°C° 0 mm 1 mps 660 mmHg 74%
    07:00 +7°C° 0 mm 1 mps 661 mmHg 68%
    08:00 +9°C° 0 mm 1 mps 662 mmHg 60%
    09:00 +11°C° 0 mm 1 mps 662 mmHg 51%
    10:00 +13°C° 0 mm 1 mps 663 mmHg 42%
    11:00 +14°C° 0 mm 2 mps 663 mmHg 43%
    12:00 +14°C° 0 mm 2 mps 663 mmHg 44%
    13:00 +14°C° 0 mm 3 mps 663 mmHg 44%
    14:00 +14°C° 0.3 mm 2 mps 663 mmHg 49%
    15:00 +13°C° 0.3 mm 2 mps 662 mmHg 53%
    16:00 +12°C° 0.3 mm 2 mps 662 mmHg 57%
    17:00 +10°C° 0.1 mm 1 mps 662 mmHg 67%
    18:00 +9°C° 0.1 mm 1 mps 661 mmHg 76%
    19:00 +7°C° 0.1 mm 1 mps 661 mmHg 86%
    20:00 +6°C° 0 mm 1 mps 661 mmHg 88%
    21:00 +5°C° 0 mm 0 mps 662 mmHg 90%
    22:00 +4°C° 0 mm 0 mps 662 mmHg 91%
    23:00 +4°C° 0 mm 0 mps 662 mmHg 92%

    27 March, Wednesday

    Time Temperature Precipitation Wind Pressure Humidity
    00:00 +4°C° 0 mm 0 mps 662 mmHg 92%
    01:00 +4°C° 0 mm 0 mps 662 mmHg 93%
    02:00 +3°C° 0.1 mm 0 mps 662 mmHg 94%
    03:00 +3°C° 0.1 mm 0 mps 661 mmHg 94%
    04:00 +3°C° 0.1 mm 0 mps 661 mmHg 95%
    05:00 +4°C° 0.2 mm 0 mps 661 mmHg 93%
    06:00 +4°C° 0.2 mm 0 mps 662 mmHg 91%
    07:00 +5°C° 0.2 mm 0 mps 662 mmHg 89%
    08:00 +7°C° 0.8 mm 1 mps 662 mmHg 85%
    09:00 +7°C° 0.8 mm 1 mps 663 mmHg 81%
    10:00 +7°C° 0.8 mm 2 mps 663 mmHg 77%
    11:00 +6°C° 2 mm 2 mps 663 mmHg 81%
    12:00 +5°C° 2 mm 2 mps 662 mmHg 85%
    13:00 +3°C° 2 mm 3 mps 662 mmHg 89%
    14:00 +2°C° 2.1 mm 3 mps 662 mmHg 89%
    15:00 +1°C° 2.1 mm 4 mps 662 mmHg 89%
    16:00 0°C° 2.1 mm 4 mps 662 mmHg 88%
    17:00 0°C° 0.1 mm 4 mps 663 mmHg 89%
    18:00 0°C° 0.1 mm 3 mps 663 mmHg 90%
    19:00 0°C° 0.1 mm 3 mps 663 mmHg 91%
    20:00 -1°C° 0 mm 3 mps 664 mmHg 92%
    21:00 -1°C° 0 mm 2 mps 664 mmHg 93%
    22:00 -1°C° 0 mm 2 mps 665 mmHg 93%
    23:00 -1°C° 0 mm 2 mps 665 mmHg 93%

    28 March, Thursday

    Time Temperature Precipitation Wind Pressure Humidity
    00:00 -1°C° 0 mm 2 mps 665 mmHg 92%
    01:00 -2°C° 0 mm 2 mps 665 mmHg 92%
    02:00 -2°C° 0 mm 2 mps 665 mmHg 92%
    03:00 -2°C° 0 mm 2 mps 665 mmHg 92%
    04:00 0°C° 0 mm 1 mps 665 mmHg 92%
    05:00 -1°C° 0 mm 2 mps 666 mmHg 90%
    06:00 +1°C° 0 mm 2 mps 666 mmHg 88%
    07:00 +2°C° 0 mm 2 mps 667 mmHg 86%
    08:00 +3°C° 0 mm 2 mps 668 mmHg 79%
    09:00 +4°C° 0 mm 2 mps 668 mmHg 72%
    10:00 +5°C° 0 mm 2 mps 669 mmHg 65%
    11:00 +5°C° 0 mm 2 mps 669 mmHg 64%
    12:00 +6°C° 0 mm 2 mps 669 mmHg 63%
    13:00 +6°C° 0 mm 2 mps 669 mmHg 61%
    14:00 +5°C° 0.1 mm 2 mps 668 mmHg 65%
    15:00 +5°C° 0.1 mm 2 mps 668 mmHg 68%
    16:00 +4°C° 0.1 mm 2 mps 668 mmHg 71%
    17:00 +4°C° 0 mm 1 mps 668 mmHg 74%
    18:00 +3°C° 0 mm 1 mps 667 mmHg 77%
    19:00 +2°C° 0 mm 1 mps 667 mmHg 80%
    20:00 +1°C° 0 mm 1 mps 667 mmHg 81%
    21:00 +1°C° 0 mm 1 mps 667 mmHg 83%
    22:00 0°C° 0 mm 1 mps 667 mmHg 84%
    23:00 0°C° 0 mm 1 mps 666 mmHg 84%
    Show more